星链-30525 (STARLINK-30525 )

导读

STARLINK-30525是美国SpaceX公司星链(Starlink)星座中的低轨通信卫星,于2023年10月5日发射入轨,属于星链第二代组网卫星。它运行在500公里左右近地轨道,配备先进相控阵天线与激光星间链路,依托氪离子推进器可实现轨道机动与自主避碰。作为全球大规模卫星互联网组网的组成部分,它可为偏远地区、移动载体提供高速低延迟宽带接入,助力星链全球覆盖能力构建,设计寿命约5-7年,退役后会主动离轨在大气层烧毁,减少空间碎片。

Basic Information
目录编号:
58012
目录名称:
STARLINK-30525
国际标识:
2023-153X
轨道中心:
EARTH
卫星名称:
星链-30525
卫星全名:
星链-30525 (STARLINK-30525 )
卫星状态:
在轨 (已飞行989 天)
发射日期:
2023-10-05 UTC
国别 :
美国 (US)
星等 :
--
Orbit Information
数据来源 国际轨道数据 AOE轨道数据
星历时间 2026-06-19T17:36:16+0800
1天前
查看轨道信息
2026-06-17T06:00:00+0800
3天前
查看轨道信息
半长轴 6861.199km 6861.095km
偏心率 0.000144 0.0001386
轨道倾角 43.001° 42.998°
近地点辐角 272.436° 255.628°
升交点赤经 212.462° 226.491°
平近点角 87.632° 110.856°
近地点 482.073km 482.007km
远地点 484.051km 483.909km
周期 94.267分钟 94.265分钟
每日圈数 15.27576 15.276105
Detailed Information
固有亮度:
5
最大亮度:
0.3
卫星平台:
Starlink v2.0 mini
覆盖范围:
全球
运营商:
太空探索技术公司
运营商所在国:
美国
制造商(研发单位):
太空探索技术公司
制造商所在国:
美国
使用方式:
暂无
Satellite Introduction
星链(Starlink)计划是由太空探索技术公司(SpaceX)提出的一个巨型低轨卫星互联网星座项目,计划在2019年至2024年间在太空搭建由约1.2万颗卫星组成的“星链”网络,其中1584颗将部署在地球上空550千米处的近地轨道,并从2020年开始工作。该卫星仍在工作。
2D Orbit Map
3D Orbit Map
Orbit Altitude Analysis Chart
Orbit Inclination Analysis Chart
Orbit Comprehensive Analysis Chart
View Comprehensive Chart